FW3803 Weather Reports


time (UTC)temp
C
wind
direction
speed
KPH
gust
KPH
rain 1hr
cm
rain 24hr
cm
rain mn
cm
humidity
%
barometer
mb
20260510164516 27 135 1.6 9.7 0.00 0.00 0.00 40 1024.9
20260510164016 27 113 1.6 6.4 0.00 0.00 0.00 41 1024.9
20260510163516 27 0.0 3.2 0.00 0.00 0.00 40 1024.9
20260510163015 27 0.0 1.6 0.00 0.00 0.00 40 1024.9
20260510162515 27 135 1.6 4.8 0.00 0.00 0.00 41 1025.0
20260510162015 27 135 3.2 4.8 0.00 0.00 0.00 38 1024.9
20260510161516 27 135 3.2 6.4 0.00 0.00 0.00 37 1025.0
20260510161016 27 135 1.6 6.4 0.00 0.00 0.00 41 1025.0
20260510160515 27 135 1.6 4.8 0.00 0.00 0.00 46 1025.2
20260510160016 28 135 1.6 8.0 0.00 0.00 0.00 46 1025.2
20260510155516 28 0.0 1.6 0.00 0.00 0.00 45 1025.1
20260510155016 28 0.0 3.2 0.00 0.00 0.00 45 1025.1
20260510154515 27 0.0 4.8 0.00 0.00 0.00 43 1025.2
20260510154016 27 0.0 4.8 0.00 0.00 0.00 43 1025.1
20260510153516 27 135 1.6 4.8 0.00 0.00 0.00 43 1025.2
20260510153016 27 135 1.6 6.4 0.00 0.00 0.00 43 1025.2
20260510152535 27 0.0 1.6 0.00 0.00 0.00 48 1025.2
20260510152036 26 0.0 0.0 0.00 0.00 0.00 51 1025.4
20260510151515 26 270 1.6 4.8 0.00 0.00 0.00 47 1025.4
20260510151016 26 158 1.6 3.2 0.00 0.00 0.00 47 1025.4
20260510150516 26 0.0 3.2 0.00 0.00 0.00 50 1025.4
20260510150015 26 0.0 4.8 0.00 0.00 0.00 50 1025.3
20260510145521 26 0.0 1.6 0.00 0.00 0.00 51 1025.3
20260510145036 25 0.0 0.0 0.00 0.00 0.00 54 1025.3
20260510144515 25 0.0 1.6 0.00 0.00 0.00 50 1025.2
20260510144016 25 0.0 1.6 0.00 0.00 0.00 51 1025.2
20260510143515 25 0.0 3.2 0.00 0.00 0.00 51 1025.2
20260510143016 25 0.0 1.6 0.00 0.00 0.00 55 1025.1
20260510142516 25 0.0 3.2 0.00 0.00 0.00 52 1025.1
20260510142015 25 0.0 3.2 0.00 0.00 0.00 54 1025.1
20260510141536 24 0.0 1.6 0.00 0.00 0.00 60 1024.9
20260510141015 23 0.0 1.6 0.00 0.00 0.00 59 1024.9
20260510140516 23 0.0 1.6 0.00 0.00 0.00 60 1024.9
20260510140035 23 0.0 1.6 0.00 0.00 0.00 62 1025.0
20260510135516 23 0.0 1.6 0.00 0.00 0.00 63 1024.9
20260510135015 23 0.0 1.6 0.00 0.00 0.00 60 1024.9
20260510134536 22 0.0 1.6 0.00 0.00 0.00 64 1024.9
20260510134015 22 0.0 1.6 0.00 0.00 0.00 63 1024.8
20260510133516 22 0.0 1.6 0.00 0.00 0.00 69 1024.8
20260510133015 22 0.0 1.6 0.00 0.00 0.00 69 1024.9
20260510132536 21 0.0 1.6 0.00 0.00 0.00 70 1024.9
20260510132015 21 0.0 1.6 0.00 0.00 0.00 70 1025.0
20260510131515 21 0.0 1.6 0.00 0.00 0.00 74 1025.0
20260510131016 20 0.0 0.0 0.00 0.00 0.00 76 1024.9
20260510130521 20 0.0 0.0 0.00 0.00 0.00 76 1024.8
20260510130035 20 0.0 0.0 0.00 0.00 0.00 81 1024.5
20260510125535 19 0.0 0.0 0.00 0.00 0.00 82 1024.6
20260510125015 18 0.0 0.0 0.00 0.00 0.00 85 1024.7
20260510124535 17 0.0 0.0 0.00 0.00 0.00 86 1024.5
20260510124016 17 0.0 0.0 0.00 0.00 0.00 89 1024.7
20260510123516 17 0.0 0.0 0.00 0.00 0.00 89 1024.6
20260510123016 16 0.0 0.0 0.00 0.00 0.00 91 1024.6
20260510122515 16 0.0 0.0 0.00 0.00 0.00 94 1024.5
20260510122015 15 0.0 0.0 0.00 0.00 0.00 95 1024.3
20260510121516 15 0.0 0.0 0.00 0.00 0.00 95 1024.2
20260510121015 14 0.0 0.0 0.00 0.00 0.00 95 1024.2
20260510120516 13 0.0 0.0 0.00 0.00 0.00 95 1024.0
20260510120016 13 0.0 0.0 0.00 0.00 0.00 95 1024.0
20260510115555 13 0.0 0.0 0.00 0.00 0.00 95 1024.0
20260510115015 12 0.0 0.0 0.00 0.00 0.00 95 1023.9
20260510114535 12 0.0 0.0 0.00 0.00 0.00 95 1023.8
20260510114015 12 0.0 0.0 0.00 0.00 0.00 95 1023.8
20260510113515 12 0.0 0.0 0.00 0.00 0.00 95 1023.8
20260510113015 11 0.0 0.0 0.00 0.00 0.00 95 1023.6
20260510112515 11 0.0 0.0 0.00 0.00 0.00 95 1023.6
20260510112016 11 0.0 0.0 0.00 0.00 0.00 95 1023.5
20260510111515 11 0.0 0.0 0.00 0.00 0.00 95 1023.3
20260510111035 11 0.0 0.0 0.00 0.00 0.00 95 1023.3
20260510110515 11 0.0 0.0 0.00 0.00 0.00 95 1023.3
20260510110015 11 0.0 0.0 0.00 0.00 0.00 95 1023.2
20260510105556 11 0.0 0.0 0.00 0.00 0.00 95 1023.1
20260510105056 11 0.0 0.0 0.00 0.00 0.00 94 1023.0
20260510104515 11 0.0 0.0 0.00 0.00 0.00 94 1023.0
20260510104015 11 0.0 0.0 0.00 0.00 0.00 94 1023.0
20260510103515 11 0.0 0.0 0.00 0.00 0.00 94 1023.0
20260510103035 11 0.0 0.0 0.00 0.00 0.00 94 1023.0
20260510102516 11 0.0 0.0 0.00 0.00 0.00 94 1022.9
20260510102015 11 0.0 0.0 0.00 0.00 0.00 94 1022.9
20260510101515 11 0.0 0.0 0.00 0.00 0.00 94 1022.9
20260510101040 11 0.0 0.0 0.00 0.00 0.00 94 1022.8
20260510100515 11 0.0 0.0 0.00 0.00 0.00 94 1022.8
20260510100016 11 0.0 0.0 0.00 0.00 0.00 94 1022.6
20260510095516 11 0.0 0.0 0.00 0.00 0.00 94 1022.4
20260510095015 11 0.0 0.0 0.00 0.00 0.00 94 1022.4
20260510094515 12 0.0 0.0 0.00 0.00 0.00 94 1022.3
20260510094016 12 0.0 0.0 0.00 0.00 0.00 94 1022.3
20260510093515 12 0.0 0.0 0.00 0.00 0.00 94 1022.2
20260510093015 12 0.0 0.0 0.00 0.00 0.00 94 1022.1
20260510092515 12 0.0 0.0 0.00 0.00 0.00 94 1022.2
20260510092016 12 0.0 0.0 0.00 0.00 0.00 94 1022.2
20260510091515 12 0.0 0.0 0.00 0.00 0.00 94 1022.2
20260510091035 12 0.0 0.0 0.00 0.00 0.00 94 1022.1
20260510090515 12 0.0 0.0 0.00 0.00 0.00 94 1022.2
20260510090016 12 0.0 0.0 0.00 0.00 0.00 94 1022.1
20260510085535 12 0.0 0.0 0.00 0.00 0.00 93 1022.0
20260510085015 13 0.0 0.0 0.00 0.00 0.00 93 1022.0
20260510084515 13 0.0 0.0 0.00 0.00 0.00 93 1021.9
20260510084035 13 0.0 0.0 0.00 0.00 0.00 93 1021.9
20260510083515 13 0.0 0.0 0.00 0.00 0.00 93 1022.0
20260510083035 13 0.0 0.0 0.00 0.00 0.00 93 1022.0
20260510082515 13 0.0 0.0 0.00 0.00 0.00 94 1022.0
20260510082015 13 0.0 0.0 0.00 0.00 0.00 94 1022.0
20260510081515 13 0.0 0.0 0.00 0.00 0.00 93 1022.0
20260510081015 13 0.0 0.0 0.00 0.00 0.00 93 1022.0
20260510080515 13 0.0 0.0 0.00 0.00 0.00 93 1022.0
20260510080035 13 0.0 0.0 0.00 0.00 0.00 93 1021.9
20260510075535 13 0.0 0.0 0.00 0.00 0.00 93 1021.8
20260510075035 13 0.0 0.0 0.00 0.00 0.00 93 1021.8
20260510074515 14 0.0 0.0 0.00 0.00 0.00 93 1021.8
20260510074015 14 0.0 0.0 0.00 0.00 0.00 93 1021.8
20260510073515 14 0.0 0.0 0.00 0.00 0.00 93 1021.7
20260510073015 14 0.0 0.0 0.00 0.00 0.00 93 1021.8
20260510072515 14 0.0 0.0 0.00 0.00 0.00 93 1021.7
20260510072015 14 0.0 0.0 0.00 0.00 0.00 93 1021.7
20260510071515 14 0.0 0.0 0.00 0.00 0.00 93 1021.7
20260510071015 14 0.0 0.0 0.00 0.00 0.00 93 1021.7
20260510070515 14 0.0 0.0 0.00 0.00 0.00 93 1021.7
20260510070015 14 0.0 0.0 0.00 0.00 0.00 93 1021.7
20260510065535 14 0.0 0.0 0.00 0.00 0.00 93 1021.6
20260510065015 15 0.0 0.0 0.00 0.00 0.00 93 1021.7
20260510064515 15 0.0 0.0 0.00 0.00 0.00 93 1021.7
20260510064015 15 0.0 0.0 0.00 0.00 0.00 93 1021.8
20260510063515 15 0.0 0.0 0.00 0.00 0.00 92 1021.7
20260510063015 15 0.0 0.0 0.00 0.00 0.00 92 1021.8
20260510062515 15 0.0 0.0 0.00 0.00 0.00 92 1021.7
20260510062016 15 0.0 0.0 0.00 0.00 0.00 92 1021.8
20260510061515 15 0.0 0.0 0.00 0.00 0.00 92 1021.9
20260510061015 15 0.0 0.0 0.00 0.00 0.00 93 1021.9
20260510060515 15 0.0 0.0 0.00 0.00 0.00 93 1021.9
20260510060015 15 0.0 0.0 0.00 0.00 0.00 92 1022.0
20260510055515 15 0.0 0.0 0.00 0.00 0.00 92 1021.9
20260510055015 15 0.0 0.0 0.00 0.00 0.00 92 1021.9
20260510054515 15 0.0 0.0 0.00 0.00 0.00 92 1021.9
20260510054015 15 0.0 0.0 0.00 0.00 0.00 91 1021.9
20260510053515 15 0.0 0.0 0.00 0.00 0.00 91 1022.0
20260510053015 15 0.0 0.0 0.00 0.00 0.00 91 1022.1
20260510052515 15 0.0 0.0 0.00 0.00 0.00 91 1022.1
20260510052015 15 0.0 0.0 0.00 0.00 0.00 91 1022.0
20260510051515 15 0.0 0.0 0.00 0.00 0.00 91 1022.2
20260510051015 15 0.0 0.0 0.00 0.00 0.00 91 1022.1
20260510050515 15 0.0 0.0 0.00 0.00 0.00 91 1022.1
20260510050015 15 0.0 0.0 0.00 0.00 0.00 90 1022.1
20260510045515 15 0.0 0.0 0.00 0.00 0.00 90 1022.1
20260510045015 15 0.0 0.0 0.00 0.00 0.00 90 1022.1
20260510044535 15 0.0 0.0 0.00 0.00 0.00 90 1022.0
20260510044015 15 0.0 0.0 0.00 0.00 0.00 90 1022.0
20260510043535 15 0.0 0.0 0.00 0.00 0.00 89 1022.2
20260510043015 15 0.0 0.0 0.00 0.00 0.00 89 1022.2
20260510042555 15 0.0 0.0 0.00 0.00 0.00 89 1022.1
20260510042035 15 0.0 0.0 0.00 0.00 0.00 89 1022.1
20260510041515 15 0.0 0.0 0.00 0.00 0.00 89 1022.0
20260510041015 15 0.0 0.0 0.00 0.00 0.00 89 1022.0
20260510040515 15 0.0 0.0 0.00 0.00 0.00 89 1022.0
20260510040015 15 0.0 0.0 0.00 0.00 0.00 89 1022.0
20260510035516 15 0.0 0.0 0.00 0.00 0.00 89 1021.8
20260510035016 15 0.0 0.0 0.00 0.00 0.00 88 1021.9
20260510034516 15 0.0 0.0 0.00 0.00 0.00 88 1021.8
20260510034016 15 0.0 0.0 0.00 0.00 0.00 88 1021.9
20260510033516 15 0.0 0.0 0.00 0.00 0.00 88 1021.8
20260510033016 15 0.0 0.0 0.00 0.00 0.00 88 1021.8
20260510032516 15 0.0 0.0 0.00 0.00 0.00 88 1021.7
20260510032016 15 0.0 0.0 0.00 0.00 0.00 88 1021.7
20260510031516 15 0.0 0.0 0.00 0.00 0.00 87 1021.6
20260510031036 15 0.0 0.0 0.00 0.00 0.00 87 1021.7
20260510030516 15 0.0 0.0 0.00 0.00 0.00 87 1021.6
20260510030016 15 0.0 1.6 0.00 0.00 0.00 87 1021.5
20260510025556 15 0.0 0.0 0.00 0.00 0.00 87 1021.6
20260510025056 16 0.0 0.0 0.00 0.00 0.00 86 1021.6
20260510024516 16 0.0 0.0 0.00 0.00 0.00 86 1021.5
20260510024016 16 0.0 0.0 0.00 0.00 0.00 87 1021.4
20260510023536 16 0.0 0.0 0.00 0.00 0.00 86 1021.4
20260510023016 16 0.0 0.0 0.00 0.00 0.00 86 1021.3
20260510022516 16 0.0 0.0 0.00 0.00 0.00 86 1021.2
20260510022016 16 0.0 0.0 0.00 0.00 0.00 85 1021.2
20260510021516 16 0.0 0.0 0.00 0.00 0.00 85 1021.1
20260510021016 16 0.0 0.0 0.00 0.00 0.00 85 1021.1
20260510020516 16 0.0 0.0 0.00 0.00 0.00 85 1020.9
20260510020016 16 0.0 0.0 0.00 0.00 0.00 84 1020.9
20260510015516 16 0.0 0.0 0.00 0.00 0.00 84 1020.8
20260510015036 16 0.0 0.0 0.00 0.00 0.00 84 1020.7
20260510014516 16 0.0 0.0 0.00 0.00 0.00 83 1020.5
20260510014016 16 0.0 0.0 0.00 0.00 0.00 83 1020.5
20260510013516 16 0.0 0.0 0.00 0.00 0.00 83 1020.7
20260510013016 16 0.0 0.0 0.00 0.00 0.00 82 1020.5
20260510012516 17 0.0 0.0 0.00 0.00 0.00 82 1020.3
20260510012036 17 0.0 0.0 0.00 0.00 0.00 82 1020.5
20260510011539 17 0.0 0.0 0.00 0.00 0.00 81 1020.4
20260510011036 17 0.0 0.0 0.00 0.00 0.00 81 1020.2
20260510010516 17 0.0 0.0 0.00 0.00 0.00 81 1020.2
20260510010016 17 0.0 0.0 0.00 0.00 0.00 80 1020.2
20260510005516 17 0.0 0.0 0.00 0.00 0.00 79 1020.0
20260510005016 17 0.0 0.0 0.00 0.00 0.00 78 1020.1
20260510004516 17 0.0 0.0 0.00 0.00 0.00 78 1020.1
20260510004016 18 0.0 0.0 0.00 0.00 0.00 77 1020.0
20260510003516 18 0.0 0.0 0.00 0.00 0.00 76 1019.9
20260510003016 18 0.0 0.0 0.00 0.00 0.00 76 1019.9
20260510002516 18 0.0 0.0 0.00 0.00 0.00 75 1019.8
20260510002016 18 0.0 0.0 0.00 0.00 0.00 74 1019.7
20260510001516 19 0.0 0.0 0.00 0.00 0.00 73 1019.7
20260510001016 19 0.0 0.0 0.00 0.00 0.00 73 1019.6
20260510000521 20 0.0 0.0 0.00 0.00 0.00 72 1019.4
20260510000016 20 0.0 0.0 0.00 0.00 0.00 71 1019.5
20260509235516 20 0.0 0.0 0.00 0.00 0.00 70 1019.4
20260509235016 20 0.0 0.0 0.00 0.00 0.00 69 1019.3
20260509234516 20 0.0 0.0 0.00 0.00 0.00 69 1019.3
20260509234036 20 0.0 0.0 0.00 0.00 0.00 67 1019.1
20260509233516 21 0.0 0.0 0.00 0.00 0.00 67 1019.0
20260509233036 21 0.0 0.0 0.00 0.00 0.00 66 1019.1
20260509232516 21 0.0 0.0 0.00 0.00 0.00 66 1019.1
20260509232016 21 0.0 0.0 0.00 0.00 0.00 65 1019.1
20260509231536 21 0.0 1.6 0.00 0.00 0.00 65 1019.2
20260509231016 21 0.0 0.0 0.00 0.00 0.00 65 1019.2
20260509230516 21 0.0 1.6 0.00 0.00 0.00 63 1019.2
20260509230036 21 0.0 1.6 0.00 0.00 0.00 62 1019.1
20260509225516 22 0.0 0.0 0.00 0.00 0.00 63 1019.0
20260509225016 22 0.0 1.6 0.00 0.00 0.00 62 1019.0
20260509224536 22 0.0 3.2 0.00 0.00 0.00 61 1019.1
20260509224016 21 0.0 0.0 0.00 0.00 0.00 62 1019.0
20260509223516 22 0.0 0.0 0.00 0.00 0.00 61 1019.1
20260509223017 22 0.0 1.6 0.00 0.00 0.00 62 1019.2
20260509222516 22 0.0 1.6 0.00 0.00 0.00 61 1019.1
20260509222116 22 0.0 1.6 0.00 0.00 0.00 62 1019.1
20260509221516 22 0.0 1.6 0.00 0.00 0.00 61 1019.0
20260509221016 22 0.0 1.6 0.00 0.00 0.00 59 1019.0
20260509220516 22 0.0 1.6 0.00 0.00 0.00 59 1019.0
20260509220016 22 0.0 1.6 0.00 0.00 0.00 60 1019.0
20260509215516 22 0.0 1.6 0.00 0.00 0.00 58 1018.9
20260509215016 22 0.0 1.6 0.00 0.00 0.00 59 1018.9
20260509214536 22 0.0 1.6 0.00 0.00 0.00 58 1019.0
20260509214016 22 0.0 1.6 0.00 0.00 0.00 58 1018.9
20260509213516 23 0.0 11.3 0.00 0.00 0.00 58 1018.9
20260509213016 23 113 1.6 8.0 0.00 0.00 0.00 55 1018.7
20260509212516 23 0.0 4.8 0.00 0.00 0.00 56 1018.8
20260509212036 22 0.0 4.8 0.00 0.00 0.00 58 1018.8
20260509211516 22 0.0 4.8 0.00 0.00 0.00 57 1018.7
20260509211016 22 135 1.6 11.3 0.00 0.00 0.00 55 1018.5
20260509210516 22 0.0 8.0 0.00 0.00 0.00 55 1018.7
20260509210016 22 0.0 1.6 0.00 0.00 0.00 55 1018.8
20260509205516 22 338 1.6 8.0 0.00 0.00 0.00 55 1018.8
20260509205056 22 0.0 3.2 0.00 0.00 0.00 56 1018.8
20260509204516 22 293 1.6 4.8 0.00 0.00 0.00 61 1018.9
20260509204016 22 0.0 4.8 0.00 0.00 0.00 57 1018.7
20260509203536 22 135 1.6 6.4 0.00 0.00 0.00 60 1018.7
20260509203016 22 0.0 3.2 0.00 0.00 0.00 60 1018.7
20260509202516 22 0.0 1.6 0.00 0.00 0.00 61 1018.9
20260509202016 22 0.0 1.6 0.00 0.00 0.00 61 1018.8
20260509201516 22 0.0 3.2 0.00 0.00 0.00 61 1019.0
20260509201036 22 0.0 1.6 0.00 0.00 0.00 59 1019.0
20260509200616 22 0.0 1.6 0.00 0.00 0.00 60 1019.1
20260509200016 22 0.0 3.2 0.00 0.00 0.00 60 1019.0
20260509195516 22 0.0 8.0 0.00 0.00 0.00 60 1019.1
20260509195016 22 0.0 3.2 0.00 0.00 0.00 59 1019.2
20260509194516 22 0 3.2 16.1 0.00 0.00 0.00 59 1019.2
20260509194016 22 113 1.6 6.4 0.00 0.00 0.00 58 1019.3
20260509193516 22 0.0 1.6 0.00 0.00 0.00 59 1019.4
20260509193036 22 338 1.6 8.0 0.00 0.00 0.00 60 1019.5
20260509192516 22 0.0 1.6 0.00 0.00 0.00 60 1019.7
20260509192016 22 0.0 1.6 0.00 0.00 0.00 57 1019.7
20260509191536 22 135 1.6 12.9 0.00 0.00 0.00 60 1019.7
20260509191017 22 0.0 3.2 0.00 0.00 0.00 62 1019.8
20260509190536 22 0.0 4.8 0.00 0.00 0.00 59 1019.8
20260509190016 22 0.0 4.8 0.00 0.00 0.00 59 1019.9
20260509185516 22 0.0 3.2 0.00 0.00 0.00 59 1020.1
20260509185016 22 0.0 1.6 0.00 0.00 0.00 57 1020.1
20260509184516 22 0.0 3.2 0.00 0.00 0.00 58 1020.1
20260509184015 22 0.0 3.2 0.00 0.00 0.00 57 1020.1
20260509183516 22 338 1.6 4.8 0.00 0.00 0.00 57 1020.2
20260509183036 22 338 1.6 3.2 0.00 0.00 0.00 55 1020.3
20260509182516 23 338 1.6 4.8 0.00 0.00 0.00 54 1020.3
20260509182016 23 135 1.6 9.7 0.00 0.00 0.00 54 1020.3
20260509181515 23 135 1.6 6.4 0.00 0.00 0.00 54 1020.3
20260509181015 23 158 1.6 4.8 0.00 0.00 0.00 55 1020.4
20260509180516 23 135 1.6 11.3 0.00 0.00 0.00 54 1020.4
20260509180016 23 113 1.6 6.4 0.00 0.00 0.00 56 1020.6
20260509175516 22 0 1.6 11.3 0.00 0.00 0.00 55 1020.6
20260509175016 22 0.0 8.0 0.00 0.00 0.00 60 1020.7
20260509174516 22 0.0 3.2 0.00 0.00 0.00 55 1020.7
20260509174015 22 0.0 1.6 0.00 0.00 0.00 59 1020.8
20260509173515 23 135 1.6 6.4 0.00 0.00 0.00 54 1020.7
20260509173016 23 315 1.6 4.8 0.00 0.00 0.00 56 1020.7
20260509172516 23 135 3.2 9.7 0.00 0.00 0.00 56 1020.6
20260509172015 23 135 3.2 9.7 0.00 0.00 0.00 54 1020.6
20260509171516 22 0.0 3.2 0.00 0.00 0.00 53 1020.7
20260509171016 22 0.0 3.2 0.00 0.00 0.00 58 1020.9
20260509170518 22 0.0 3.2 0.00 0.00 0.00 57 1020.7
20260509170036 22 0.0 4.8 0.00 0.00 0.00 57 1020.9
20260509165516 22 113 1.6 11.3 0.00 0.00 0.00 53 1021.1
20260509165016 22 0 1.6 11.3 0.00 0.00 0.00 54 1021.4